This demonstration page uses our WeatherBlox Daily Observations layout. Learn more.

Left ArrowRight Arrow

38.20091, -84.87328

Hourly Observations for August 3, 2017

Temp ( °F °C ) Dew Point ( °F °C ) Humidity (%) Winds ( mph kmh ) Pressure ( in mb ) Visibility ( mi km ) Precip ( " mm )
12:53 am 00:53 Clear 68 20 64 17.8 87 87 Calm 30.05 1018 10 16 0.00 0.00
1:53 am 01:53 Clear 67 19.4 63 17.2 87 87 Calm 30.06 1018 10 16 0.00 0.00
2:53 am 02:53 Clear 66 18.9 62 16.7 87 87 Calm 30.05 1018 10 16 0.00 0.00
3:53 am 03:53 Clear 67 19.4 62 16.7 84 84 Calm 30.05 1018 10 16 0.00 0.00
4:53 am 04:53 Clear 65 18.3 62 16.7 90 90 Calm 30.05 1018 10 16 0.00 0.00
5:53 am 05:53 Clear 65 18.3 62 16.7 90 90 SE 3 6 30.06 1018 10 16 0.00 0.00
6:53 am 06:53 Mostly Cloudy 65 18.3 61 16.1 87 87 Calm 30.06 1018 7 11 0.00 0.00
7:53 am 07:53 Sunny 67 19.4 63 17.2 87 87 Calm 30.07 1018 10 16 0.00 0.00
8:53 am 08:53 Sunny 71 21.7 65 18.3 81 81 S 7 11 30.08 1019 10 16 0.00 0.00
9:53 am 09:53 Sunny 76 24.4 67 19.4 74 74 SW 7 11 30.09 1019 10 16 0.00 0.00
10:53 am 10:53 Sunny 79 26.1 66 18.9 65 65 SW 6 9 30.08 1019 10 16 0.00 0.00
11:53 am 11:53 Sunny 81 27.2 65 18.3 58 58 SSW 7 11 30.06 1018 10 16 0.00 0.00
12:53 pm 12:53 Sunny 83 28.3 66 18.9 57 57 SSE 6 9 30.06 1018 10 16 0.00 0.00
1:53 pm 13:53 Mostly Sunny 85 29.4 66 18.9 53 53 SSW 10 17 30.04 1017 10 16 0.00 0.00
2:53 pm 14:53 Partly Cloudy 87 30.6 66 18.9 50 50 SW 9 15 30.02 1017 10 16 0.00 0.00
3:53 pm 15:53 Sunny 87 30.6 64 17.8 46 46 S 12 19 29.98 1015 10 16 0.00 0.00
4:53 pm 16:53 Sunny 88 31.1 64 17.8 45 45 S 12 19 29.97 1015 10 16 0.00 0.00
5:53 pm 17:53 Partly Cloudy 83 28.3 64 17.8 53 53 SW 8 13 29.97 1015 10 16 0.00 0.00
6:23 pm 18:23 Partly Cloudy with Nearby Thunderstorms 84 28.9 65 18.3 53 53 SW 14 22 29.97 1015 10 16 0.00 0.00
6:46 pm 18:46 Mostly Cloudy 81 27.2 67 19.4 62 62 W 5 7 29.97 1015 10 16 0.00 0.00
6:53 pm 18:53 Mostly Cloudy 81 27.2 67 19.4 62 62 NW 7 11 29.99 1016 10 16 0.00 0.00
7:53 pm 19:53 Sunny 81 27.2 67 19.4 62 62 Calm 29.99 1016 10 16 0.00 0.00
8:53 pm 20:53 Clear 76 24.4 68 20 77 77 Calm 29.98 1015 10 16 0.00 0.00
9:53 pm 21:53 Clear 76 24.4 67 19.4 74 74 SE 3 6 29.97 1015 10 16 0.00 0.00
10:53 pm 22:53 Clear 73 22.8 66 18.9 79 79 SE 5 7 29.97 1015 10 16 0.00 0.00
11:53 pm 23:53 Clear 72 22.2 66 18.9 82 82 Calm 29.95 1014 10 16 0.00 0.00

Powered by AerisWeather